[[{"header":{"parameterUnit":"m.s-1","parameterCategory":2,"la1":30.2991,"la2":30.254,"lo1":-89.0895,"lo2":-89.0444,"dy":0.0017,"dx":0.0017,"nx":28,"ny":28,"refTime":"2024-09-26T03:00:00:Z","depth":"0","parameterNumber":2,"parameterNumberName":"U-component_of_CURRENTS"},"data":[0,0,0,0,0,0,0,0,0,0,0,0,0,0,0,0,0,0,0,0,0,0,0,0,0,0,0,0,0,0,0,0,0,0,0,0,0,0,0,0,0,0,0,0,0,0,0,0,0,0,0,0,0,0,0,0,0,0,0.2063,0.2063,0,0.2077,0.2077,0.2077,0.2064,0.2064,0.2063,0.2063,0.2065,0.2066,0.2066,0,0,0,0,0,0,0,0,0,0,0,0,0,0.2046,0.2046,0.2063,0.2063,0.2063,0.2077,0.2077,0.2077,0.2064,0.2064,0.2063,0.2063,0.2065,0.2066,0.2066,0,0,0,0,0,0,0,0,0,0,0,0,0,0.2054,0.2046,0.2063,0.206,0.2059,0.2077,0.2077,0.2077,0.2064,0.2064,0.2063,0.2062,0.2065,0.2066,0.2066,0.2083,0,0,0.2068,0.2069,0,0,0,0,0,0,0,0,0.2054,0.2055,0.206,0.206,0.206,0.2069,0.2072,0.2079,0.2064,0.2061,0.2063,0.2062,0.2067,0.2067,0.207,0.2083,0.2083,0.2068,0.2069,0.2069,0.2069,0,0,0,0,0,0,0,0.2053,0.2054,0.2067,0.206,0.206,0.2065,0.2065,0.2073,0.2066,0.2061,0.2061,0.2065,0.2067,0.2069,0.207,0.2083,0.2068,0.2069,0.2069,0.207,0.2109,0.211,0,0,0,0,0,0,0.2054,0.2054,0.2067,0.2068,0.2057,0.2065,0.2066,0.2066,0.2066,0.2066,0.2065,0.2064,0.2068,0.2069,0.207,0.2087,0.2069,0.207,0.207,0.2108,0.2109,0.211,0,0,0,0,0,0,0.2053,0.2055,0.2066,0.2062,0.2064,0.2066,0.2067,0.2066,0.2067,0.2069,0.2069,0.2066,0.2068,0.2069,0.2078,0.2087,0.207,0.2071,0.2108,0.2109,0.211,0.2123,0,0,0,0,0,0,0.2053,0.2054,0.2055,0.2062,0.2064,0.2076,0.2067,0.2067,0.2071,0.207,0.207,0.207,0.2067,0.2077,0.2079,0.2088,0.2071,0.2107,0.2108,0.2109,0.2122,0.2125,0.2127,0,0,0,0,0,0.2052,0.2055,0.2055,0.2057,0.2065,0.2076,0.2078,0.2077,0.2072,0.2075,0.2076,0.207,0.2086,0.2078,0.208,0.2089,0.2106,0.2108,0.2109,0.2121,0.2124,0.2127,0,0,0,0,0,0,0.205,0.2054,0.2054,0.2058,0.2067,0.2075,0.2079,0.2079,0.2083,0.2081,0.2078,0.2079,0.2093,0.2091,0.2082,0.2105,0.2095,0.2097,0.2104,0.2107,0.2109,0.2119,0.2072,0,0,0,0,0,0.205,0.2051,0.206,0.2064,0.2068,0.2074,0.2079,0.208,0.2085,0.2086,0.2088,0.2092,0.2102,0.2102,0.2112,0.2122,0.2132,0.213,0.2132,0.2134,0.2144,0.2172,0.2178,0.2115,0.2115,0.2115,0,0,0.2051,0.2054,0.2054,0.2063,0.2069,0.2079,0.2075,0.2085,0.2092,0.2087,0.2097,0.2105,0.2109,0.2123,0.2128,0.2118,0.2156,0.2136,0.2138,0.2147,0.2174,0.218,0.2186,0.2116,0.2115,0.2115,0,0,0.2055,0.2056,0.2058,0.2066,0.2077,0.2084,0.2087,0.2098,0.2101,0.2114,0.2116,0.2129,0.2137,0.2145,0.2149,0.2172,0.2173,0.2172,0.2185,0.2212,0.2217,0.2222,0.2235,0.2241,0.2166,0.2166,0.2166,0,0.2057,0.2059,0.2062,0.2069,0.2078,0.2086,0.2096,0.2104,0.2116,0.213,0.2118,0.2153,0.215,0.2177,0.2179,0.2178,0.2189,0.2172,0.2215,0.222,0.2225,0.2237,0.2244,0.2167,0.2167,0.2167,0.2167,0,0.2062,0.2066,0.207,0.2079,0.209,0.2101,0.2114,0.2128,0.2134,0.2147,0.2178,0.2181,0.2203,0.22,0.2193,0.2228,0.2224,0.222,0.2207,0.2232,0.2243,0.225,0.2168,0.2168,0.2168,0.2168,0,0,0.2064,0.2071,0.2072,0.2075,0.2096,0.2104,0.2127,0.2154,0.2177,0.2189,0.222,0.2232,0.2244,0.225,0.2248,0.2261,0.2293,0.2251,0.2252,0.2263,0.2347,0.2356,0.2364,0.2297,0.2299,0.23,0.2337,0,0.2068,0.2075,0.2082,0.2094,0.2102,0.2121,0.2143,0.2171,0.2196,0.2229,0.2245,0.2273,0.2259,0.2269,0.2285,0.2299,0.2313,0.2283,0.2322,0.2323,0.2328,0.2373,0.2417,0.2457,0.2344,0.2345,0.2346,0,0.207,0.2075,0.2084,0.2101,0.2108,0.2119,0.2163,0.2184,0.2239,0.2263,0.2303,0.2318,0.235,0.2327,0.2371,0.2354,0.2354,0.2356,0.2358,0.237,0.2346,0.2415,0.2473,0.2463,0.2356,0.2355,0.2354,0,0.2063,0.2075,0.2079,0.2084,0.211,0.2123,0.2143,0.2197,0.2226,0.2289,0.2319,0.2366,0.2389,0.2408,0.2417,0.2397,0.2461,0.2433,0.2443,0.2442,0.2491,0.2493,0.2546,0.2465,0.2465,0.2465,0.2465,0,0.2061,0.2065,0.2073,0.2074,0.2089,0.2114,0.2148,0.2183,0.2245,0.229,0.2333,0.2383,0.2411,0.2448,0.2445,0.2478,0.2489,0.2463,0.2464,0.2495,0.2497,0.2498,0.2455,0.2467,0.2466,0.2466,0.2466,0,0.2049,0.2055,0.2058,0.2076,0.2082,0.2092,0.2138,0.2168,0.2232,0.2293,0.2313,0.2404,0.2469,0.249,0.2531,0.2519,0.2479,0.2542,0.2571,0.2575,0.2563,0.2517,0.2266,0.223,0.2561,0.2561,0.2562,0,0.2042,0.204,0.2047,0.2046,0.205,0.2072,0.2091,0.2154,0.2193,0.2311,0.2338,0.243,0.2502,0.2578,0.2605,0.2625,0.2503,0.2642,0.261,0.2588,0.2538,0.2248,0.2217,0.2674,0.2676,0.2677,0.2678,0,0.2026,0.2025,0.2023,0.2023,0.2029,0.204,0.2073,0.2103,0.2188,0.2256,0.2361,0.2433,0.2556,0.264,0.2679,0.2686,0.2535,0.2664,0.2649,0.2645,0.2325,0.2286,0.2605,0.2688,0.2687,0.2686,0.2686,0.2685,0.2009,0.2,0.1995,0.1991,0.1995,0.1998,0.1999,0.2057,0.212,0.2218,0.2335,0.2448,0.2653,0.2746,0.2721,0.2764,0.2576,0.2744,0.2694,0.2401,0.2351,0.2682,0.2757,0.2757,0.2756,0.2756,0.2755,0,0.1982,0.1972,0.1965,0.195,0.1934,0.1954,0.1976,0.1982,0.2037,0.2188,0.2291,0.2525,0.2662,0.277,0.2897,0.2838,0.2619,0.2774,0.2444,0.2423,0.2786,0.2789,0.2866,0.2866,0.2866,0.2866,0.2866,0.2866,0.1967,0.1944,0.1937,0.1892,0.188,0.185,0.1851,0.1877,0.1966,0.2113,0.2253,0.2384,0.2613,0.2792,0.2844,0.2824,0.2592,0.2429,0.2345,0.2729,0.2723,0.2717,0.2713,0.2773,0.2772,0.1922,0.1916,0.1912]},{"header":{"parameterUnit":"m.s-1","parameterCategory":2,"la1":30.2991,"la2":30.254,"lo1":-89.0895,"lo2":-89.0444,"dy":0.0017,"dx":0.0017,"nx":28,"ny":28,"refTime":"2024-09-26T03:00:00:Z","depth":"0","parameterNumber":3,"parameterNumberName":"V-component_of_CURRENTS"},"data":[0,0,0,0,0,0,0,0,0,0,0,0,0,0,0,0,0,0,0,0,0,0,0,0,0,0,0,0,0,0,0,0,0,0,0,0,0,0,0,0,0,0,0,0,0,0,0,0,0,0,0,0,0,0,0,0,0,0,0.0422,0.0422,0,0.0423,0.0423,0.0422,0.0404,0.0404,0.0403,0.0403,0.0373,0.0372,0.0372,0,0,0,0,0,0,0,0,0,0,0,0,0,0.0378,0.0378,0.0421,0.0422,0.0422,0.0423,0.0423,0.0422,0.0404,0.0404,0.0403,0.0403,0.0373,0.0372,0.0372,0,0,0,0,0,0,0,0,0,0,0,0,0,0.0388,0.0379,0.0421,0.0414,0.0413,0.0423,0.0423,0.0422,0.0404,0.0404,0.0403,0.0403,0.0373,0.0372,0.0372,0.0379,0,0,0.037,0.0369,0,0,0,0,0,0,0,0,0.0388,0.039,0.0415,0.0414,0.0414,0.0414,0.0396,0.0407,0.0404,0.0406,0.0403,0.0402,0.0385,0.0383,0.0383,0.0377,0.0376,0.0369,0.0369,0.0369,0.0369,0,0,0,0,0,0,0,0.0387,0.0389,0.0421,0.0415,0.0414,0.0401,0.0402,0.0398,0.0397,0.0406,0.0405,0.0408,0.0384,0.0384,0.0382,0.0375,0.0369,0.0369,0.0368,0.0368,0.0363,0.0363,0,0,0,0,0,0,0.0392,0.0389,0.0421,0.0421,0.0401,0.0403,0.0404,0.0413,0.0398,0.0395,0.0408,0.0407,0.0385,0.0383,0.0381,0.0391,0.0369,0.0368,0.0368,0.0363,0.0363,0.0363,0,0,0,0,0,0,0.0391,0.0395,0.0421,0.0405,0.0408,0.0405,0.0415,0.0414,0.0413,0.04,0.0396,0.0409,0.0385,0.0382,0.0381,0.0389,0.0368,0.0367,0.0362,0.0363,0.0363,0.0409,0,0,0,0,0,0,0.039,0.0395,0.0402,0.0406,0.0409,0.0431,0.0416,0.0414,0.0416,0.0414,0.04,0.0396,0.0384,0.0383,0.0381,0.0388,0.0367,0.0362,0.0363,0.0363,0.0407,0.0411,0.0414,0,0,0,0,0,0.0388,0.0404,0.0402,0.0406,0.042,0.0432,0.0432,0.0426,0.0417,0.0422,0.0412,0.0397,0.0384,0.0383,0.038,0.0388,0.0362,0.0362,0.0363,0.0406,0.041,0.0414,0,0,0,0,0,0,0.0387,0.0403,0.0402,0.0421,0.0427,0.0429,0.0435,0.0429,0.0426,0.0424,0.0405,0.0402,0.0403,0.0389,0.0388,0.0386,0.0369,0.0369,0.0402,0.0406,0.0409,0.042,0.0366,0,0,0,0,0,0.0391,0.0408,0.0417,0.0432,0.0437,0.0436,0.0439,0.0437,0.0436,0.0433,0.0425,0.0412,0.0404,0.04,0.0393,0.0396,0.0374,0.0396,0.04,0.0403,0.0409,0.0384,0.0386,0.0365,0.0365,0.0365,0,0,0.0394,0.0406,0.0414,0.0433,0.0437,0.0455,0.0436,0.0448,0.0459,0.0431,0.0442,0.0427,0.0408,0.0411,0.041,0.0401,0.0397,0.0404,0.0407,0.0411,0.0385,0.0387,0.0389,0.0366,0.0366,0.0366,0,0,0.0413,0.0421,0.0442,0.0452,0.0466,0.0469,0.0474,0.048,0.0477,0.0485,0.0467,0.0457,0.0449,0.0437,0.0429,0.0446,0.0417,0.0442,0.0469,0.0445,0.0446,0.0447,0.0422,0.042,0.0443,0.0443,0.0443,0,0.0414,0.0447,0.0448,0.0472,0.0486,0.0478,0.0504,0.0503,0.0507,0.051,0.0494,0.0481,0.046,0.0462,0.0466,0.0455,0.0437,0.0456,0.045,0.045,0.0451,0.0424,0.0422,0.0445,0.0445,0.0445,0.0445,0,0.0452,0.0476,0.049,0.0521,0.0533,0.0555,0.0559,0.0566,0.056,0.0558,0.0557,0.0529,0.052,0.0509,0.0492,0.0489,0.0474,0.0458,0.0441,0.0456,0.0426,0.0423,0.0449,0.0448,0.0447,0.0446,0,0,0.0459,0.0508,0.0513,0.054,0.0563,0.0582,0.0599,0.0617,0.0635,0.0617,0.0631,0.0604,0.0585,0.0574,0.0548,0.0523,0.0503,0.0496,0.0494,0.0474,0.045,0.0455,0.0452,0.0488,0.0488,0.0488,0.0428,0,0.0488,0.0547,0.056,0.0613,0.0645,0.0647,0.0669,0.0679,0.068,0.069,0.0651,0.0653,0.0611,0.0606,0.0576,0.0527,0.0497,0.0521,0.0436,0.0433,0.0439,0.045,0.0529,0.0484,0.0425,0.0424,0.0424,0,0.0522,0.056,0.0619,0.0673,0.0686,0.0712,0.0751,0.077,0.0774,0.0773,0.0759,0.0728,0.0695,0.0652,0.0571,0.0589,0.0524,0.0477,0.0473,0.0462,0.0433,0.0459,0.048,0.0446,0.0419,0.0419,0.0419,0,0.0538,0.0601,0.0653,0.0672,0.0726,0.0749,0.0774,0.0795,0.0826,0.0825,0.0838,0.0791,0.0774,0.0687,0.0587,0.0578,0.0494,0.0466,0.0406,0.0405,0.0448,0.0452,0.0432,0.0401,0.0401,0.0401,0.0401,0,0.057,0.061,0.0667,0.0698,0.0761,0.0782,0.0845,0.086,0.0892,0.0946,0.0882,0.0906,0.0782,0.0719,0.0612,0.0509,0.0509,0.0416,0.0394,0.0466,0.0471,0.0423,0.0386,0.0399,0.0399,0.04,0.04,0,0.0581,0.0618,0.0683,0.0749,0.0774,0.0819,0.09,0.0949,0.0963,0.1027,0.1028,0.0993,0.092,0.0785,0.0654,0.0555,0.0441,0.0402,0.0494,0.0485,0.0397,0.0359,0.0313,0.0338,0.0327,0.0327,0.0326,0,0.0593,0.0629,0.072,0.0768,0.0801,0.0874,0.0934,0.0982,0.1046,0.1095,0.1133,0.1076,0.1075,0.0876,0.0696,0.0514,0.0457,0.0448,0.0439,0.0411,0.0351,0.034,0.0364,0.0508,0.0509,0.0511,0.0511,0,0.0615,0.0647,0.0704,0.0806,0.088,0.0972,0.106,0.1126,0.1198,0.1258,0.1338,0.1338,0.116,0.1048,0.0784,0.0639,0.0476,0.0463,0.0417,0.0481,0.0485,0.0494,0.052,0.0521,0.052,0.052,0.0519,0.0519,0.0628,0.0674,0.0757,0.0854,0.0944,0.1068,0.1167,0.1276,0.1404,0.1546,0.1529,0.1624,0.143,0.1097,0.0848,0.0551,0.0536,0.0496,0.0447,0.0433,0.0481,0.0526,0.0512,0.0511,0.0511,0.051,0.0509,0,0.065,0.0713,0.0804,0.0932,0.1043,0.1089,0.1257,0.1386,0.1569,0.174,0.1847,0.1945,0.164,0.131,0.0886,0.0632,0.054,0.0494,0.0509,0.053,0.0562,0.0596,0.0623,0.0623,0.0623,0.0623,0.0623,0.0623,0.0666,0.0755,0.0812,0.0996,0.1095,0.1277,0.1391,0.1588,0.1775,0.21,0.231,0.244,0.2345,0.1404,0.0854,0.0666,0.0547,0.0467,0.041,0.0433,0.0431,0.0428,0.0453,0.045,0.045,0.0468,0.0468,0.0468]}],[{"header":{"parameterUnit":"m.s-1","parameterCategory":2,"la1":30.2991,"la2":30.254,"lo1":-89.0895,"lo2":-89.0444,"dy":0.0017,"dx":0.0017,"nx":28,"ny":28,"refTime":"2024-09-26T03:00:00:Z","depth":"2","parameterNumber":2,"parameterNumberName":"U-component_of_CURRENTS"},"data":[0,0,0,0,0,0,0,0,0,0,0,0,0,0,0,0,0,0,0,0,0,0,0,0,0,0,0,0,0,0,0,0,0,0,0,0,0,0,0,0,0,0,0,0,0,0,0,0,0,0,0,0,0,0,0,0,0,0,0.1973,0.1973,0,0.1987,0.1987,0.1987,0.1977,0.1976,0.1976,0.1976,0.198,0.198,0.198,0,0,0,0,0,0,0,0,0,0,0,0,0,0.1956,0.1956,0.1973,0.1973,0.1974,0.1987,0.1987,0.1987,0.1977,0.1976,0.1976,0.1975,0.1979,0.198,0.198,0,0,0,0,0,0,0,0,0,0,0,0,0,0.1964,0.1956,0.1973,0.1971,0.1971,0.1987,0.1987,0.1987,0.1977,0.1976,0.1976,0.1975,0.1979,0.198,0.1981,0.1995,0,0,0.1982,0.1983,0,0,0,0,0,0,0,0,0.1964,0.1965,0.1971,0.1971,0.1971,0.1981,0.1983,0.199,0.1977,0.1973,0.1976,0.1975,0.198,0.1981,0.1983,0.1995,0.1995,0.1983,0.1983,0.1983,0.1983,0,0,0,0,0,0,0,0.1963,0.1964,0.1977,0.1971,0.1972,0.1976,0.1976,0.1984,0.1978,0.1973,0.1973,0.1977,0.198,0.1982,0.1983,0.1995,0.1983,0.1983,0.1983,0.1984,0.2022,0.2023,0,0,0,0,0,0,0.1964,0.1964,0.1977,0.1978,0.1968,0.1977,0.1977,0.1977,0.1978,0.1978,0.1977,0.1976,0.1981,0.1982,0.1983,0.2002,0.1983,0.1984,0.1984,0.2022,0.2023,0.2023,0,0,0,0,0,0,0.1963,0.1965,0.1976,0.1972,0.1974,0.1977,0.1978,0.1978,0.198,0.1982,0.1981,0.198,0.1981,0.1982,0.1992,0.2002,0.1984,0.1985,0.2021,0.2022,0.2023,0.2038,0,0,0,0,0,0,0.1963,0.1964,0.1966,0.1972,0.1975,0.1986,0.1978,0.1978,0.1984,0.1983,0.1984,0.1984,0.1981,0.1991,0.1993,0.2002,0.1985,0.202,0.2022,0.2023,0.2037,0.2039,0.2042,0,0,0,0,0,0.1962,0.1965,0.1966,0.1968,0.1976,0.1987,0.1988,0.1988,0.1985,0.1988,0.1989,0.1984,0.2,0.1992,0.1994,0.2004,0.202,0.2021,0.2023,0.2036,0.2039,0.2042,0,0,0,0,0,0,0.1961,0.1965,0.1965,0.197,0.1979,0.1985,0.199,0.1991,0.1995,0.1995,0.1992,0.1992,0.2008,0.2005,0.1996,0.2019,0.2009,0.2011,0.2019,0.2022,0.2024,0.2034,0.1986,0,0,0,0,0,0.1962,0.1962,0.1971,0.1976,0.198,0.1986,0.1991,0.1993,0.1998,0.2,0.2002,0.2006,0.2016,0.2017,0.2026,0.2036,0.2046,0.2044,0.2047,0.2049,0.2059,0.2086,0.2092,0.2028,0.2028,0.2028,0,0,0.1963,0.1966,0.1967,0.1975,0.1982,0.1991,0.1988,0.1998,0.2006,0.2001,0.2012,0.2019,0.2023,0.2037,0.2043,0.2033,0.2071,0.2051,0.2053,0.2061,0.2088,0.2094,0.21,0.2029,0.2029,0.2029,0,0,0.1967,0.1969,0.1972,0.1979,0.1991,0.1997,0.2001,0.2012,0.2015,0.2029,0.2031,0.2045,0.2053,0.206,0.2064,0.2087,0.2088,0.2087,0.2101,0.2127,0.2133,0.2138,0.2151,0.2157,0.2082,0.2082,0.2082,0,0.1971,0.1973,0.1976,0.1983,0.1991,0.2,0.201,0.2018,0.2031,0.2044,0.2034,0.2068,0.2066,0.2092,0.2095,0.2093,0.2105,0.2087,0.2131,0.2136,0.2141,0.2153,0.216,0.2083,0.2083,0.2083,0.2083,0,0.1975,0.198,0.1984,0.1993,0.2004,0.2015,0.2028,0.2042,0.205,0.2063,0.2094,0.2097,0.2119,0.2117,0.2109,0.2144,0.214,0.2136,0.2123,0.2148,0.2159,0.2166,0.2084,0.2084,0.2084,0.2083,0,0,0.1979,0.1985,0.1987,0.199,0.2011,0.2018,0.2041,0.2068,0.2091,0.2104,0.2135,0.2147,0.216,0.2166,0.2164,0.2176,0.221,0.2168,0.2169,0.218,0.2263,0.2271,0.2279,0.2214,0.2216,0.2217,0.2254,0,0.1983,0.199,0.1997,0.2009,0.2016,0.2035,0.2057,0.2084,0.211,0.2143,0.216,0.2187,0.2175,0.2186,0.2202,0.2216,0.2229,0.22,0.2238,0.2239,0.2243,0.2288,0.2084,0.2103,0.2261,0.2262,0.2263,0,0.1986,0.1991,0.1999,0.2016,0.2022,0.2034,0.2078,0.2099,0.2153,0.2178,0.2218,0.2234,0.2265,0.2243,0.2287,0.2271,0.2272,0.2273,0.2274,0.2284,0.2261,0.2104,0.2108,0.2273,0.2272,0.2272,0.2271,0,0.198,0.1992,0.1996,0.2001,0.2025,0.2039,0.2059,0.2112,0.2141,0.2205,0.2235,0.2282,0.2305,0.2324,0.2334,0.2314,0.2377,0.235,0.2357,0.2357,0.2194,0.2178,0.2381,0.2381,0.2381,0.2381,0.2381,0,0.1979,0.1983,0.199,0.1992,0.2007,0.2031,0.2066,0.2101,0.2163,0.2207,0.225,0.2299,0.2328,0.2365,0.2362,0.2394,0.2405,0.2378,0.2378,0.2193,0.2178,0.2332,0.2326,0.2382,0.2382,0.2382,0.2382,0,0.1968,0.1974,0.1976,0.1995,0.2001,0.2012,0.2057,0.2087,0.2151,0.2212,0.2232,0.2321,0.2386,0.2407,0.2447,0.2434,0.2454,0.2456,0.2238,0.2214,0.2403,0.2398,0.2471,0.2471,0.2472,0.2473,0.2473,0,0.1962,0.196,0.1967,0.1966,0.1971,0.1994,0.2013,0.2075,0.2113,0.223,0.2256,0.2347,0.2412,0.2485,0.2456,0.2461,0.2498,0.2295,0.223,0.2426,0.2418,0.2411,0.2404,0.2003,0.1999,0.1996,0.1994,0,0.1947,0.1946,0.1944,0.1945,0.1952,0.1962,0.1996,0.2025,0.2109,0.217,0.2271,0.2336,0.2406,0.2347,0.2364,0.2333,0.2281,0.2244,0.2499,0.2034,0.1994,0.1984,0.199,0.1969,0.1972,0.1974,0.1975,0.1976,0.1931,0.1922,0.1917,0.1915,0.1919,0.1921,0.1922,0.1954,0.2006,0.2049,0.2189,0.22,0.2237,0.2168,0.2104,0.2035,0.2199,0.2096,0.2099,0.2107,0.2069,0.2035,0.2009,0.2012,0.2014,0.2016,0.2018,0,0.189,0.1895,0.1889,0.1874,0.184,0.1879,0.19,0.1855,0.1868,0.1925,0.1975,0.1837,0.1824,0.1846,0.1708,0.1728,0.1639,0.1661,0.1527,0.1556,0.1581,0.1509,0.1304,0.1302,0.1299,0.1297,0,0,0.1871,0.1841,0.1833,0.178,0.1784,0.1719,0.1718,0.1663,0.1653,0.1602,0.1592,0.1714,0.181,0.1528,0.1505,0.1387,0.1443,0.1319,0.19,0.1771,0.1792,0.1853,0.1781,0,0,0,0,0]},{"header":{"parameterUnit":"m.s-1","parameterCategory":2,"la1":30.2991,"la2":30.254,"lo1":-89.0895,"lo2":-89.0444,"dy":0.0017,"dx":0.0017,"nx":28,"ny":28,"refTime":"2024-09-26T03:00:00:Z","depth":"2","parameterNumber":3,"parameterNumberName":"V-component_of_CURRENTS"},"data":[0,0,0,0,0,0,0,0,0,0,0,0,0,0,0,0,0,0,0,0,0,0,0,0,0,0,0,0,0,0,0,0,0,0,0,0,0,0,0,0,0,0,0,0,0,0,0,0,0,0,0,0,0,0,0,0,0,0,0.0403,0.0403,0,0.0404,0.0404,0.0404,0.0386,0.0386,0.0386,0.0385,0.0355,0.0355,0.0354,0,0,0,0,0,0,0,0,0,0,0,0,0,0.036,0.0361,0.0403,0.0403,0.0403,0.0404,0.0404,0.0404,0.0386,0.0386,0.0386,0.0385,0.0355,0.0355,0.0354,0,0,0,0,0,0,0,0,0,0,0,0,0,0.037,0.0361,0.0403,0.0396,0.0395,0.0404,0.0404,0.0404,0.0386,0.0386,0.0385,0.0385,0.0356,0.0355,0.0354,0.036,0,0,0.0352,0.0352,0,0,0,0,0,0,0,0,0.037,0.0372,0.0397,0.0396,0.0396,0.0396,0.0378,0.0388,0.0387,0.0388,0.0385,0.0385,0.0367,0.0365,0.0365,0.0359,0.0357,0.0352,0.0351,0.0351,0.0351,0,0,0,0,0,0,0,0.0369,0.0371,0.0402,0.0397,0.0396,0.0383,0.0384,0.0379,0.0379,0.0388,0.0387,0.039,0.0366,0.0366,0.0364,0.0357,0.0352,0.0351,0.0351,0.0351,0.0344,0.0344,0,0,0,0,0,0,0.0374,0.0371,0.0402,0.0402,0.0383,0.0385,0.0386,0.0395,0.038,0.0378,0.039,0.0389,0.0367,0.0365,0.0363,0.0373,0.0351,0.035,0.035,0.0343,0.0344,0.0344,0,0,0,0,0,0,0.0373,0.0377,0.0402,0.0387,0.0389,0.0386,0.0397,0.0395,0.0395,0.0382,0.0378,0.0391,0.0367,0.0364,0.0363,0.0371,0.035,0.0349,0.0343,0.0344,0.0344,0.039,0,0,0,0,0,0,0.0372,0.0377,0.0384,0.0388,0.0391,0.0412,0.0397,0.0396,0.0398,0.0396,0.0382,0.0378,0.0366,0.0365,0.0363,0.037,0.0349,0.0343,0.0343,0.0344,0.0388,0.0391,0.0395,0,0,0,0,0,0.0371,0.0385,0.0384,0.0388,0.0401,0.0413,0.0413,0.0407,0.0399,0.0404,0.0394,0.0379,0.0366,0.0365,0.0362,0.0369,0.0343,0.0343,0.0344,0.0386,0.0391,0.0394,0,0,0,0,0,0,0.0369,0.0385,0.0384,0.0403,0.0409,0.041,0.0416,0.0411,0.0407,0.0405,0.0387,0.0383,0.0384,0.037,0.0369,0.0367,0.035,0.035,0.0383,0.0387,0.039,0.0401,0.0348,0,0,0,0,0,0.0373,0.039,0.0398,0.0413,0.0419,0.0417,0.042,0.0418,0.0417,0.0415,0.0406,0.0394,0.0385,0.0381,0.0374,0.0376,0.0355,0.0376,0.038,0.0383,0.0389,0.0364,0.0366,0.0346,0.0346,0.0346,0,0,0.0376,0.0388,0.0396,0.0414,0.0418,0.0436,0.0418,0.0429,0.044,0.0412,0.0423,0.0408,0.0389,0.0392,0.039,0.0381,0.0377,0.0384,0.0387,0.0391,0.0365,0.0367,0.0368,0.0346,0.0346,0.0346,0,0,0.0395,0.0402,0.0423,0.0433,0.0447,0.045,0.0454,0.046,0.0458,0.0465,0.0447,0.0437,0.0429,0.0417,0.0409,0.0425,0.0397,0.0421,0.0448,0.0423,0.0425,0.0426,0.04,0.0398,0.0422,0.0422,0.0422,0,0.0396,0.0428,0.0429,0.0453,0.0467,0.0459,0.0484,0.0483,0.0487,0.049,0.0474,0.046,0.044,0.0441,0.0445,0.0434,0.0416,0.0435,0.0428,0.0429,0.0429,0.0402,0.04,0.0424,0.0424,0.0424,0.0424,0,0.0432,0.0456,0.0471,0.0501,0.0513,0.0534,0.0538,0.0545,0.0538,0.0537,0.0536,0.0508,0.0499,0.0487,0.0471,0.0467,0.0452,0.0437,0.042,0.0434,0.0404,0.0401,0.0428,0.0427,0.0426,0.0426,0,0,0.0439,0.0488,0.0493,0.0519,0.0542,0.056,0.0577,0.0594,0.0612,0.0595,0.0608,0.058,0.0562,0.0551,0.0525,0.0501,0.048,0.0474,0.0471,0.0452,0.0427,0.0431,0.0428,0.0466,0.0465,0.0465,0.0405,0,0.0468,0.0526,0.0539,0.0592,0.0623,0.0624,0.0646,0.0656,0.0656,0.0666,0.0627,0.0629,0.0588,0.0583,0.0553,0.0504,0.0474,0.0498,0.0412,0.041,0.0415,0.0425,0.041,0.0357,0.0401,0.0401,0.04,0,0.0502,0.0539,0.0597,0.065,0.0663,0.0689,0.0727,0.0746,0.0749,0.0748,0.0734,0.0703,0.067,0.0628,0.0546,0.0565,0.0501,0.0453,0.045,0.0437,0.0409,0.035,0.0349,0.0394,0.0395,0.0395,0.0396,0,0.0518,0.058,0.0631,0.065,0.0703,0.0725,0.0751,0.077,0.0801,0.08,0.0811,0.0765,0.0748,0.0661,0.0562,0.0553,0.0468,0.044,0.0381,0.038,0.0343,0.034,0.0376,0.0376,0.0376,0.0376,0.0376,0,0.0549,0.0589,0.0646,0.0676,0.0739,0.0759,0.0822,0.0836,0.0867,0.0919,0.0856,0.0878,0.0756,0.0691,0.0586,0.0482,0.0483,0.039,0.0368,0.0358,0.0357,0.037,0.037,0.0374,0.0374,0.0375,0.0375,0,0.0561,0.0597,0.0662,0.0727,0.0752,0.0796,0.0876,0.0925,0.0938,0.1,0.1,0.0964,0.089,0.0756,0.0625,0.0527,0.0416,0.0374,0.0373,0.0353,0.0333,0.0337,0.0299,0.0299,0.0299,0.0299,0.0299,0,0.0573,0.0609,0.0698,0.0747,0.078,0.0852,0.0911,0.0958,0.102,0.1066,0.1103,0.1045,0.1037,0.0837,0.064,0.0454,0.0431,0.0321,0.03,0.0345,0.0327,0.0331,0.0334,0.0259,0.0259,0.0259,0.0258,0,0.0595,0.0627,0.0683,0.0785,0.0858,0.0949,0.1036,0.1101,0.1169,0.1223,0.1298,0.1291,0.1095,0.0917,0.0646,0.0504,0.0349,0.0309,0.0349,0.0294,0.0306,0.0289,0.0294,0.0255,0.0255,0.0256,0.0256,0.0256,0.0608,0.0654,0.0736,0.0833,0.0922,0.1044,0.1142,0.123,0.1347,0.1439,0.1437,0.1427,0.1189,0.0853,0.0601,0.0327,0.0355,0.0252,0.0253,0.0255,0.0274,0.0287,0.0234,0.0235,0.0235,0.0235,0.0235,0,0.0627,0.0693,0.0783,0.091,0.1014,0.1066,0.123,0.1322,0.147,0.1539,0.1596,0.1376,0.1146,0.0873,0.0478,0.0252,0.0202,0.0163,0.0157,0.0163,0.0167,0.0181,0.0117,0.0116,0.0115,0.0114,0,0,0.0642,0.0729,0.0785,0.0963,0.1064,0.1226,0.1337,0.1462,0.1552,0.1634,0.1636,0.1568,0.1252,0.0939,0.0603,0.038,0.0321,0.0312,0.043,0.0469,0.0477,0.0239,0.0271,0,0,0,0,0]}],[{"header":{"parameterUnit":"m.s-1","parameterCategory":2,"la1":30.2991,"la2":30.254,"lo1":-89.0895,"lo2":-89.0444,"dy":0.0017,"dx":0.0017,"nx":28,"ny":28,"refTime":"2024-09-26T03:00:00:Z","depth":"4","parameterNumber":2,"parameterNumberName":"U-component_of_CURRENTS"},"data":[0,0,0,0,0,0,0,0,0,0,0,0,0,0,0,0,0,0,0,0,0,0,0,0,0,0,0,0,0,0,0,0,0,0,0,0,0,0,0,0,0,0,0,0,0,0,0,0,0,0,0,0,0,0,0,0,0,0,0.1043,0.1043,0,0.1088,0.1089,0.1089,0.1125,0.1125,0.1126,0.1126,0.1184,0.1185,0.1186,0,0,0,0,0,0,0,0,0,0,0,0,0,0.0993,0.0994,0.1043,0.1043,0.1044,0.1088,0.1089,0.1089,0.1125,0.1125,0.1126,0.1126,0.1183,0.1185,0.1186,0,0,0,0,0,0,0,0,0,0,0,0,0,0.1023,0.0994,0.1043,0.1068,0.1071,0.1088,0.1089,0.109,0.1125,0.1125,0.1126,0.1127,0.1183,0.1184,0.1186,0.1183,0,0,0.1191,0.1192,0,0,0,0,0,0,0,0,0.1022,0.1025,0.1063,0.1066,0.1069,0.1103,0.1093,0.1122,0.1125,0.1103,0.1126,0.1127,0.1158,0.1161,0.1167,0.1186,0.1189,0.1191,0.1192,0.1193,0.1194,0,0,0,0,0,0,0,0.102,0.1023,0.106,0.1064,0.1068,0.1079,0.1084,0.1098,0.1126,0.1105,0.1108,0.1114,0.1159,0.1165,0.1169,0.1189,0.1191,0.1193,0.1194,0.1194,0.1281,0.1283,0,0,0,0,0,0,0.1015,0.1021,0.1058,0.1061,0.1048,0.108,0.1085,0.109,0.1125,0.1131,0.1114,0.1116,0.1162,0.1167,0.1171,0.1235,0.1193,0.1195,0.1196,0.128,0.1282,0.1283,0,0,0,0,0,0,0.1014,0.1018,0.1057,0.1043,0.1049,0.108,0.1086,0.1091,0.1122,0.1132,0.1138,0.1142,0.1163,0.1169,0.1208,0.1235,0.1195,0.1197,0.1278,0.128,0.1282,0.1322,0,0,0,0,0,0,0.1012,0.1017,0.1031,0.1043,0.105,0.1081,0.1085,0.1091,0.1124,0.1128,0.1158,0.1162,0.1164,0.1205,0.1209,0.1237,0.1198,0.1277,0.1279,0.1282,0.1319,0.1325,0.133,0,0,0,0,0,0.101,0.1021,0.1031,0.1037,0.1064,0.1082,0.1087,0.111,0.1125,0.114,0.1166,0.1163,0.1224,0.1208,0.1212,0.1241,0.1276,0.1279,0.1281,0.1317,0.1324,0.133,0,0,0,0,0,0,0.1009,0.1026,0.1037,0.1055,0.1075,0.1089,0.1109,0.1124,0.1156,0.1169,0.1178,0.1184,0.1231,0.123,0.1212,0.1274,0.125,0.1254,0.1275,0.1282,0.1287,0.1289,0.12,0,0,0,0,0,0.1014,0.1029,0.1046,0.1064,0.1075,0.1098,0.1113,0.113,0.1153,0.1169,0.1192,0.1218,0.1242,0.1258,0.1278,0.1309,0.1309,0.1331,0.1337,0.1341,0.1347,0.1376,0.1384,0.1293,0.1293,0.1292,0,0,0.102,0.1032,0.1042,0.1066,0.1085,0.1104,0.111,0.1141,0.1165,0.117,0.1221,0.1242,0.1256,0.1294,0.1314,0.1299,0.1367,0.1345,0.1349,0.1352,0.138,0.1389,0.1397,0.1295,0.1294,0.1294,0,0,0.103,0.105,0.1064,0.1082,0.1114,0.1127,0.1141,0.1172,0.1197,0.1239,0.1254,0.1293,0.1329,0.1344,0.1355,0.1403,0.1398,0.1414,0.1442,0.147,0.1478,0.1485,0.149,0.1497,0.1413,0.1413,0.1413,0,0.104,0.1055,0.1073,0.1091,0.1111,0.1139,0.1161,0.1186,0.123,0.1258,0.1264,0.1339,0.1351,0.1395,0.1413,0.1416,0.1425,0.1413,0.1477,0.1484,0.149,0.1494,0.1501,0.1416,0.1415,0.1415,0.1415,0,0.105,0.1075,0.1087,0.1117,0.1141,0.1167,0.1198,0.1237,0.1274,0.1302,0.137,0.1391,0.1437,0.1446,0.1444,0.1499,0.1489,0.1483,0.1458,0.1502,0.1503,0.151,0.1419,0.1418,0.1417,0.1417,0,0,0.1044,0.1086,0.1094,0.1113,0.1159,0.1176,0.1227,0.1276,0.132,0.1369,0.1425,0.147,0.1498,0.1511,0.1522,0.1542,0.1588,0.1535,0.1535,0.1536,0.1644,0.1541,0.1539,0.1599,0.1601,0.1602,0.1625,0,0.1052,0.1083,0.1106,0.1147,0.1166,0.1211,0.1253,0.1307,0.1359,0.1421,0.1462,0.1519,0.1517,0.155,0.1574,0.1593,0.161,0.1582,0.1605,0.1606,0.1506,0.1544,0.1607,0.1629,0.1631,0.1632,0.1633,0,0.1051,0.1074,0.111,0.1164,0.1179,0.1213,0.1293,0.1337,0.1425,0.1471,0.1539,0.1574,0.163,0.1615,0.167,0.1657,0.1658,0.1658,0.1659,0.1554,0.1516,0.1579,0.1645,0.1644,0.1643,0.1642,0.1641,0,0.1025,0.1076,0.1106,0.1124,0.1188,0.1227,0.1275,0.1362,0.141,0.1514,0.1561,0.1633,0.1678,0.1701,0.1715,0.1704,0.1756,0.1737,0.1641,0.1633,0.17,0.1693,0.1768,0.1768,0.1768,0.1768,0.1768,0,0.1009,0.1037,0.1101,0.1116,0.1166,0.1223,0.1295,0.1357,0.1451,0.1512,0.1592,0.1642,0.1706,0.1741,0.1738,0.1711,0.178,0.1651,0.1637,0.1715,0.1709,0.1704,0.1696,0.1769,0.1769,0.1768,0.1768,0,0.097,0.1013,0.1048,0.1123,0.1153,0.1192,0.1296,0.1343,0.1446,0.1527,0.1563,0.1667,0.1718,0.1752,0.1789,0.1731,0.1718,0.1687,0.1766,0.1756,0.1566,0.1561,0.1578,0.1575,0.1572,0.1569,0.1567,0,0.0948,0.0963,0.1042,0.1066,0.1105,0.1176,0.1223,0.1332,0.1383,0.1528,0.1554,0.1647,0.1701,0.1668,0.1715,0.1697,0.1673,0.1644,0.1603,0.1564,0.155,0.1549,0.1547,0.1563,0.1562,0.1561,0.1561,0,0.0903,0.094,0.0968,0.1021,0.1071,0.1119,0.1199,0.1226,0.1352,0.1453,0.151,0.1536,0.1588,0.161,0.1607,0.1593,0.1652,0.1614,0.1619,0.158,0.1547,0.1535,0.1536,0.1551,0.1552,0.1553,0.1554,0,0.0871,0.0877,0.092,0.0958,0.1016,0.1044,0.1096,0.1155,0.1217,0.1374,0.1392,0.1491,0.1584,0.1556,0.1559,0.1535,0.1504,0.1434,0.1448,0.146,0.1409,0.1348,0.1284,0,0,0,0,0,0.083,0.0827,0.0855,0.0887,0.0941,0.0977,0.1068,0.1123,0.1245,0.1249,0.1317,0.1362,0.1383,0.1434,0.1383,0.1494,0.1501,0.1426,0.1426,0.1497,0.1508,0.1458,0,0,0,0,0,0,0.08,0.082,0.0825,0.0821,0.0833,0.0883,0.0937,0.1018,0.103,0.1158,0.1179,0.1268,0.131,0.1396,0.1355,0.1365,0.1333,0.1485,0.1481,0.149,0.1501,0.151,0.1462,0,0,0,0,0]},{"header":{"parameterUnit":"m.s-1","parameterCategory":2,"la1":30.2991,"la2":30.254,"lo1":-89.0895,"lo2":-89.0444,"dy":0.0017,"dx":0.0017,"nx":28,"ny":28,"refTime":"2024-09-26T03:00:00:Z","depth":"4","parameterNumber":3,"parameterNumberName":"V-component_of_CURRENTS"},"data":[0,0,0,0,0,0,0,0,0,0,0,0,0,0,0,0,0,0,0,0,0,0,0,0,0,0,0,0,0,0,0,0,0,0,0,0,0,0,0,0,0,0,0,0,0,0,0,0,0,0,0,0,0,0,0,0,0,0,0.0267,0.0267,0,0.027,0.027,0.027,0.0271,0.0271,0.0271,0.0271,0.0255,0.0255,0.0254,0,0,0,0,0,0,0,0,0,0,0,0,0,0.0237,0.0237,0.0267,0.0267,0.0267,0.027,0.027,0.027,0.0271,0.0271,0.0271,0.0271,0.0256,0.0255,0.0254,0,0,0,0,0,0,0,0,0,0,0,0,0,0.0245,0.0237,0.0267,0.0268,0.0268,0.027,0.027,0.027,0.0271,0.0271,0.0271,0.0271,0.0256,0.0255,0.0254,0.0249,0,0,0.0252,0.0252,0,0,0,0,0,0,0,0,0.0245,0.0246,0.0268,0.0268,0.0268,0.0271,0.0254,0.0262,0.0271,0.0269,0.0271,0.0271,0.0259,0.0258,0.0258,0.0248,0.0247,0.0252,0.0252,0.0251,0.0251,0,0,0,0,0,0,0,0.0244,0.0246,0.0267,0.0268,0.0268,0.0261,0.0262,0.0255,0.0263,0.0269,0.027,0.0271,0.0259,0.0259,0.0257,0.0247,0.0252,0.0252,0.0251,0.0251,0.0239,0.0239,0,0,0,0,0,0,0.0247,0.0246,0.0267,0.0267,0.0257,0.0261,0.0263,0.0269,0.0263,0.0263,0.0271,0.0271,0.026,0.0258,0.0257,0.0269,0.0251,0.0251,0.025,0.0239,0.0239,0.0239,0,0,0,0,0,0,0.0246,0.0249,0.0267,0.0257,0.0259,0.0262,0.0269,0.0269,0.0275,0.0265,0.0264,0.0277,0.026,0.0258,0.0259,0.0267,0.025,0.025,0.0238,0.0239,0.0239,0.028,0,0,0,0,0,0,0.0245,0.0249,0.0255,0.0257,0.0259,0.0274,0.0269,0.0269,0.0275,0.0276,0.0269,0.0268,0.026,0.026,0.0258,0.0266,0.0249,0.0238,0.0238,0.0239,0.0278,0.0281,0.0284,0,0,0,0,0,0.0244,0.0253,0.0255,0.0258,0.0268,0.0274,0.0275,0.0276,0.0276,0.0281,0.0277,0.0268,0.0259,0.026,0.0258,0.0265,0.0238,0.0238,0.0239,0.0277,0.0281,0.0284,0,0,0,0,0,0,0.0242,0.0254,0.0257,0.0269,0.0274,0.0275,0.0281,0.028,0.0281,0.0284,0.0272,0.0271,0.0273,0.0262,0.0262,0.0261,0.0246,0.0246,0.0276,0.0279,0.0282,0.0289,0.0249,0,0,0,0,0,0.0245,0.0257,0.0264,0.0274,0.0278,0.028,0.0283,0.0286,0.0286,0.0288,0.0284,0.0277,0.0271,0.027,0.0263,0.0264,0.0244,0.0265,0.0268,0.0271,0.0274,0.0249,0.025,0.0239,0.0239,0.0239,0,0,0.0246,0.0255,0.0262,0.0275,0.0279,0.0292,0.0283,0.0292,0.0303,0.0285,0.0299,0.0288,0.0273,0.0276,0.0276,0.0269,0.0263,0.0271,0.0274,0.0275,0.025,0.0251,0.0252,0.024,0.024,0.024,0,0,0.0256,0.0265,0.0279,0.0288,0.03,0.0303,0.0308,0.0314,0.0318,0.0326,0.0315,0.0309,0.0304,0.0296,0.0289,0.0301,0.0278,0.0298,0.0321,0.0297,0.0298,0.0298,0.0274,0.0272,0.0301,0.0301,0.0301,0,0.0257,0.028,0.0283,0.03,0.0312,0.0311,0.0329,0.0332,0.0338,0.0343,0.0335,0.0327,0.0312,0.0313,0.0317,0.0308,0.0291,0.0312,0.0301,0.0301,0.0301,0.0276,0.0273,0.0303,0.0303,0.0303,0.0302,0,0.0279,0.0299,0.0309,0.0334,0.0344,0.0361,0.0367,0.0376,0.0378,0.038,0.0383,0.0362,0.0358,0.0349,0.0338,0.0333,0.032,0.0308,0.0295,0.0305,0.0277,0.0274,0.0306,0.0305,0.0305,0.0304,0,0,0.0278,0.0318,0.0323,0.0346,0.0367,0.0381,0.0397,0.0414,0.0432,0.0423,0.0436,0.0418,0.0408,0.0399,0.0381,0.0359,0.0339,0.0338,0.0335,0.0318,0.0287,0.0266,0.0259,0.0327,0.0327,0.0326,0.0268,0,0.0297,0.034,0.0353,0.0396,0.042,0.0428,0.0448,0.0461,0.0465,0.0476,0.0449,0.0455,0.0427,0.0428,0.0401,0.0357,0.0331,0.0356,0.0276,0.0274,0.0258,0.0255,0.0325,0.0266,0.0265,0.0264,0.0264,0,0.0316,0.0346,0.0392,0.044,0.0452,0.0476,0.0512,0.0531,0.0538,0.054,0.0533,0.0513,0.0487,0.0457,0.0385,0.0404,0.035,0.0309,0.0305,0.0269,0.0246,0.0253,0.0257,0.0257,0.0258,0.0258,0.0258,0,0.0323,0.0374,0.0417,0.0433,0.0481,0.0505,0.0532,0.0553,0.0579,0.0584,0.0595,0.0558,0.0545,0.0474,0.0388,0.0388,0.0299,0.0285,0.0214,0.0212,0.0231,0.0231,0.0228,0.0228,0.0228,0.0228,0.0228,0,0.034,0.0374,0.0428,0.0453,0.051,0.0533,0.0589,0.0606,0.0634,0.067,0.0634,0.0638,0.0549,0.0487,0.0401,0.0297,0.0307,0.0217,0.0195,0.0249,0.0252,0.0228,0.0229,0.0226,0.0227,0.0227,0.0227,0,0.034,0.0375,0.043,0.0492,0.0518,0.056,0.0635,0.0674,0.0693,0.0733,0.0737,0.0699,0.0622,0.0518,0.04,0.0321,0.0218,0.0177,0.0243,0.0227,0.0143,0.0147,0.0093,0.0092,0.0091,0.009,0.0089,0,0.0345,0.0374,0.0459,0.0501,0.0535,0.0603,0.0655,0.0701,0.0743,0.0769,0.0786,0.0728,0.0686,0.0507,0.0391,0.0222,0.0194,0.0135,0.0135,0.0144,0.0129,0.0134,0.0139,0.0088,0.0087,0.0087,0.0087,0,0.0353,0.0386,0.0433,0.0522,0.0588,0.0663,0.0737,0.077,0.0823,0.0835,0.0828,0.074,0.0649,0.0509,0.0377,0.0254,0.017,0.0124,0.0125,0.0125,0.0137,0.0124,0.013,0.0083,0.0084,0.0084,0.0084,0,0.0359,0.0394,0.0463,0.0542,0.0624,0.0705,0.0745,0.0799,0.084,0.0864,0.0858,0.0762,0.0712,0.0525,0.0403,0.028,0.0244,0.0195,0.0192,0.0195,0.0236,0.0268,0.0235,0,0,0,0,0,0.0363,0.0409,0.0481,0.0574,0.0655,0.0712,0.0794,0.0828,0.0872,0.0873,0.087,0.0785,0.0611,0.0536,0.0409,0.0369,0.0213,0.0214,0.0154,0.0063,0.0067,0.0096,0,0,0,0,0,0,0.0368,0.0432,0.0477,0.0585,0.0655,0.0754,0.0811,0.0844,0.0846,0.0863,0.0775,0.074,0.0571,0.0686,0.0404,0.0367,0.0306,0.0138,0.0134,0.0061,0.0064,0.0068,0.0099,0,0,0,0,0]}]]